Location: Bailleul
(50.3375°N, 2.8513°E)
Time: 04:10:44
(UTC+00:00)

Cosmos 1437 Rocket - Pass Details

Date: 19 April 2021
Orbit: 503 x 564 km, 81.2° (Epoch: 09 May)

Event Time Altitude Azimuth Distance (km) Brightness Sun altitude
Exits shadow 23:34:10 30° 334° (NNW) 935 4.5 -28.1°
Drops below altitude 10° 23:36:30 10° 360° (N) 1,737 6.3 -28.1°
Sets 23:38:45 0° 7° (N) 2,635 7.5 -28.1°
